QPF
0.00 0.00 0.00 0.00 0.00 0.00 0.00 0.00 0.00 0.00 0.00 0.00 0.00 0.00 0.00 0.00 0.00 0.00 0.00 0.00 0.00 0.00 0.00 0.00 0.00 0.00 0.00 0.00 0.00 0.00 0.00 0.00 0.00 0.00 0.00 0.00 0.00 0.00 0.00 0.00 0.00 0.00 0.00 0.00
0.00 0.00 0.00 0.00 0.00 0.00 0.00 0.00 0.00 0.00 0.00 0.00 0.00 0.00 0.00 0.00 0.00 0.00 0.00 0.00 0.00 0.00 0.00 0.00 0.00 0.00 0.00 0.00 0.00 0.00 0.00 0.00 0.00 0.00 0.00 0.00 0.00 0.00 0.00 0.00 0.00 0.00 0.00 0.00
0.00 0.00 0.00 0.00 0.00 0.00 0.00 0.00 0.00 0.00 0.00 0.00 0.00 0.00 0.00 0.00 0.00 0.00 0.00 0.00 0.00 0.00 0.00 0.00 0.00 0.00 0.00 0.00 0.00 0.00 0.00 0.00 0.00 0.00 0.00 0.00 0.00 0.00 0.00 0.00 0.00 0.00 0.00 0.00
0.00 0.00 0.00 0.00 0.00 0.00 0.00 0.00 0.00 0.00 0.00 0.00 0.00 0.00 0.00 0.00 0.00 0.00 0.00 0.00 0.00 0.00 0.00 0.00 0.00 0.00 0.00 0.00 0.00 0.00 0.00 0.00 0.00 0.00 0.00 0.00 0.00 0.00 0.00 0.00 0.00 0.00 0.00 0.00
0.00 0.00 0.00 0.00 0.00 0.00 0.00 0.00 0.00 0.00 0.00 0.00 0.00 0.00 0.00 0.00 0.00 0.00 0.00 0.00 0.00 0.00 0.00 0.00 0.00 0.00 0.00 0.00 0.00 0.00 0.00 0.00 0.00 0.00 0.00 0.00 0.00 0.00 0.00 0.00 0.00 0.00 0.00 0.00
0.00 0.00 0.00 0.00 0.00 0.00 0.00 0.00 0.00 0.00 0.00 0.00 0.00 0.00 0.00 0.00 0.00 0.00 0.00 0.00 0.00 0.00 0.00 0.00 0.00 0.00 0.00 0.00 0.00 0.00 0.00 0.00 0.00 0.00 0.00 0.00 0.00 0.00 0.00 0.00 0.00 0.00 0.00 0.00
0.00 0.00 0.00 0.00 0.00 0.00 0.00 0.00 0.00 0.00 0.00 0.00 0.00 0.00 0.00 0.00 0.00 0.00 0.00 0.00 0.00 0.00 0.00 0.00 0.00 0.00 0.00 0.00 0.00 0.00 0.00 0.00 0.00 0.00 0.00 0.00 0.00 0.00 0.00 0.00 0.00 0.00 0.00 0.00
0.00 0.00 0.00 0.00 0.00 0.00 0.00 0.00 0.00 0.00 0.00 0.00 0.00 0.00 0.00 0.00 0.00 0.00 0.00 0.00 0.00 0.00 0.00 0.00 0.00 0.00 0.00 0.00 0.00 0.00 0.00 0.00 0.00 0.00 0.00 0.00 0.00 0.00 0.00 0.00 0.00 0.00 0.00 0.00
0.00 0.00 0.00 0.00 0.00 0.00 0.00 0.00 0.00 0.00 0.00 0.00 0.00 0.00 0.00 0.00 0.00 0.00 0.00 0.00 0.00 0.00 0.00 0.00 0.00 0.00 0.00 0.00 0.00 0.00 0.00 0.00 0.00 0.00 0.00 0.00 0.00 0.00 0.00 0.00 0.00 0.00 0.00 0.00
0.00 0.00 0.00 0.00 0.00 0.00 0.00 0.00 0.00 0.00 0.00 0.00 0.00 0.00 0.00 0.00 0.00 0.00 0.00 0.00 0.00 0.00 0.00 0.00 0.00 0.00 0.00 0.00 0.00 0.00 0.00 0.00 0.00 0.00 0.00 0.00 0.00 0.00 0.00 0.00 0.00 0.00 0.00 0.00
0.00 0.00 0.00 0.00 0.00 0.00 0.00 0.00 0.00 0.00 0.00 0.00 0.00 0.00 0.00 0.00 0.00 0.00 0.00 0.00 0.00 0.00 0.00 0.00 0.00 0.00 0.00 0.00 0.00 0.00 0.00 0.00 0.00 0.00 0.00 0.00 0.00 0.00 0.00 0.00 0.00 0.00 0.00 0.00
0.00 0.00 0.00 0.00 0.00 0.00 0.00 0.00 0.00 0.00 0.00 0.00 0.00 0.00 0.00 0.00 0.00 0.00 0.00 0.00 0.00 0.00 0.00 0.00 0.00 0.00 0.00 0.00 0.00 0.00 0.00 0.00 0.00 0.00 0.00 0.00 0.00 0.00 0.00 0.00 0.00 0.00 0.00 0.03
0.00 0.00 0.00 0.00 0.00 0.00 0.00 0.00 0.00 0.00 0.00 0.00 0.00 0.00 0.00 0.00 0.00 0.00 0.00 0.00 0.00 0.00 0.00 0.00 0.00 0.00 0.00 0.00 0.00 0.00 0.00 0.00 0.00 0.00 0.00 0.00 0.00 0.00 0.00 0.00 0.00 0.00 0.03 0.03
0.00 0.00 0.00 0.00 0.00 0.00 0.00 0.00 0.00 0.00 0.00 0.00 0.00 0.00 0.00 0.00 0.00 0.00 0.00 0.00 0.00 0.00 0.00 0.00 0.00 0.00 0.00 0.00 0.00 0.00 0.00 0.00 0.00 0.00 0.00 0.00 0.00 0.00 0.00 0.00 0.00 0.02 0.02 0.00
0.00 0.00 0.00 0.00 0.00 0.00 0.00 0.00 0.00 0.00 0.00 0.00 0.00 0.00 0.00 0.00 0.00 0.00 0.00 0.00 0.00 0.00 0.00 0.00 0.00 0.00 0.00 0.00 0.00 0.00 0.00 0.00 0.00 0.00 0.00 0.00 0.00 0.00 0.00 0.00 0.01 0.01 0.00 0.00
0.00 0.00 0.00 0.00 0.00 0.00 0.00 0.00 0.00 0.00 0.00 0.00 0.00 0.00 0.00 0.00 0.00 0.00 0.00 0.00 0.00 0.00 0.00 0.00 0.00 0.00 0.00 0.00 0.00 0.00 0.00 0.00 0.00 0.00 0.00 0.00 0.00 0.00 0.00 0.01 0.00 0.02 0.03 0.03
0.00 0.00 0.00 0.00 0.00 0.00 0.00 0.00 0.00 0.00 0.00 0.00 0.00 0.00 0.00 0.00 0.00 0.00 0.00 0.00 0.00 0.00 0.00 0.00 0.00 0.00 0.00 0.00 0.00 0.00 0.00 0.00 0.00 0.00 0.00 0.00 0.00 0.00 0.00 0.01 0.02 0.02 0.04 0.04
0.00 0.00 0.00 0.00 0.00 0.00 0.00 0.00 0.00 0.00 0.00 0.00 0.00 0.00 0.00 0.00 0.00 0.00 0.00 0.00 0.00 0.00 0.00 0.00 0.00 0.00 0.00 0.00 0.00 0.00 0.00 0.00 0.00 0.00 0.00 0.00 0.00 0.00 0.00 0.01 0.01 0.00 0.01 0.01
0.00 0.00 0.00 0.00 0.00 0.00 0.00 0.00 0.00 0.00 0.00 0.00 0.00 0.00 0.00 0.00 0.00 0.02 0.01 0.00 0.00 0.00 0.00 0.00 0.00 0.00 0.00 0.00 0.00 0.00 0.00 0.00 0.00 0.00 0.00 0.00 0.00 0.00 0.00 0.01 0.01 0.00 0.00 0.00
0.00 0.00 0.00 0.00 0.00 0.00 0.00 0.00 0.00 0.00 0.00 0.00 0.00 0.00 0.00 0.00 0.01 0.03 0.00 0.00 0.00 0.00 0.00 0.00 0.00 0.00 0.00 0.00 0.00 0.00 0.00 0.00 0.00 0.00 0.00 0.00 0.00 0.00 0.01 0.01 0.01 0.01 0.03 0.06
0.00 0.00 0.00 0.00 0.00 0.00 0.00 0.00 0.00 0.00 0.00 0.00 0.00 0.00 0.00 0.00 0.00 0.00 0.00 0.00 0.00 0.00 0.00 0.00 0.00 0.00 0.00 0.00 0.00 0.00 0.00 0.00 0.00 0.00 0.00 0.00 0.00 0.00 0.01 0.01 0.01 0.02 0.05 0.06
0.00 0.00 0.00 0.00 0.00 0.00 0.00 0.00 0.00 0.00 0.00 0.00 0.00 0.00 0.00 0.00 0.00 0.00 0.00 0.00 0.00 0.00 0.00 0.00 0.00 0.00 0.00 0.00 0.00 0.00 0.00 0.00 0.00 0.00 0.00 0.00 0.00 0.00 0.01 0.01 0.01 0.01 0.04 0.02
0.00 0.00 0.00 0.00 0.00 0.00 0.00 0.00 0.00 0.00 0.00 0.00 0.00 0.00 0.00 0.00 0.00 0.00 0.00 0.00 0.00 0.00 0.00 0.00 0.00 0.00 0.00 0.00 0.00 0.00 0.00 0.00 0.00 0.00 0.00 0.00 0.00 0.00 0.00 0.01 0.02 0.03 0.05 0.03
0.00 0.00 0.00 0.00 0.00 0.00 0.00 0.00 0.00 0.00 0.00 0.00 0.00 0.00 0.00 0.00 0.00 0.00 0.00 0.00 0.00 0.00 0.00 0.00 0.00 0.00 0.00 0.00 0.00 0.00 0.00 0.00 0.00 0.00 0.00 0.00 0.00 0.01 0.00 0.00 0.02 0.02 0.04 0.05
0.00 0.00 0.00 0.00 0.00 0.00 0.00 0.00 0.00 0.00 0.00 0.00 0.00 0.00 0.00 0.00 0.00 0.00 0.00 0.00 0.00 0.00 0.00 0.00 0.00 0.00 0.00 0.00 0.00 0.00 0.00 0.00 0.00 0.00 0.00 0.00 0.00 0.01 0.01 0.00 0.00 0.01 0.00 0.00
0.00 0.00 0.00 0.00 0.00 0.00 0.00 0.00 0.00 0.00 0.00 0.00 0.00 0.00 0.00 0.00 0.00 0.00 0.00 0.00 0.00 0.00 0.00 0.00 0.00 0.00 0.00 0.00 0.00 0.00 0.00 0.00 0.00 0.00 0.00 0.00 0.00 0.00 0.01 0.03 0.02 0.00 0.00 0.00
MSLP
1005.94 1004.91 1003.75 1004.19 1004.25 1004.42 1004.47 1004.19 1004.11 1004.33 1005.14 1005.50 1004.67 1004.88 1004.73 1005.27 1006.05 1005.80 1006.73 1007.33 1008.09 1008.77 1009.73 1011.33 1012.30 1012.62 1013.29 1013.91 1014.53 1014.94 1015.23 1015.62 1016.05 1015.74 1015.53 1015.21 1015.07 1015.86 1015.70 1015.58 1016.11 1016.89 1017.07 1017.25
1005.19 1004.60 1004.21 1004.79 1004.95 1005.01 1004.83 1004.49 1005.17 1004.91 1005.35 1005.82 1004.88 1004.61 1004.70 1005.92 1006.39 1006.81 1006.91 1007.37 1008.08 1008.89 1009.76 1011.17 1011.97 1012.47 1013.13 1013.63 1014.28 1014.77 1015.15 1015.47 1015.85 1015.53 1015.54 1015.77 1016.08 1015.92 1015.75 1015.93 1016.41 1016.74 1017.05 1017.15
1004.45 1004.67 1005.06 1005.24 1005.28 1005.13 1005.10 1005.38 1005.70 1005.77 1005.52 1004.97 1005.25 1004.45 1005.01 1005.90 1006.47 1007.27 1007.56 1007.66 1008.13 1008.49 1009.05 1010.07 1011.03 1011.93 1012.57 1013.29 1014.01 1014.59 1015.05 1015.33 1015.69 1015.80 1015.67 1015.88 1015.97 1015.68 1015.56 1015.61 1015.87 1015.89 1016.63 1016.74
1004.64 1005.12 1005.45 1005.42 1005.09 1005.87 1005.33 1006.33 1006.24 1005.99 1005.70 1004.56 1005.38 1004.36 1005.05 1005.92 1006.33 1006.88 1007.57 1007.77 1007.95 1008.55 1009.31 1009.86 1010.79 1011.30 1011.85 1012.57 1013.10 1014.19 1014.78 1015.28 1015.53 1015.79 1015.77 1015.98 1016.13 1015.73 1015.55 1015.67 1015.59 1016.14 1016.26 1016.20
1004.81 1005.30 1005.58 1005.26 1005.85 1006.51 1006.26 1006.83 1006.54 1006.20 1005.68 1005.38 1005.54 1004.83 1006.05 1006.15 1005.84 1006.69 1007.13 1007.61 1007.97 1008.28 1008.46 1009.09 1010.09 1011.03 1011.57 1012.32 1012.75 1013.73 1014.61 1015.11 1015.52 1015.90 1016.26 1016.05 1015.73 1015.49 1015.64 1015.64 1015.87 1016.09 1015.51 1015.60
1005.30 1005.75 1005.71 1005.79 1006.64 1006.97 1006.87 1006.28 1005.80 1006.02 1005.11 1004.99 1006.04 1006.09 1006.09 1006.52 1006.58 1006.62 1007.03 1007.43 1007.63 1007.84 1008.39 1008.92 1009.73 1010.87 1011.24 1011.85 1012.51 1013.29 1014.43 1014.98 1015.41 1015.80 1015.88 1016.14 1016.12 1016.07 1015.94 1015.99 1016.05 1015.43 1015.68 1015.55
1005.99 1005.95 1006.45 1006.84 1006.32 1006.75 1006.65 1006.48 1005.14 1005.83 1005.29 1005.17 1006.07 1006.07 1006.58 1007.09 1007.27 1007.49 1007.47 1007.32 1007.26 1007.35 1008.10 1008.61 1008.73 1010.16 1011.13 1011.64 1012.50 1013.08 1014.00 1014.49 1014.95 1015.29 1015.48 1015.67 1016.09 1016.32 1016.07 1015.91 1015.67 1016.13 1015.69 1015.67
1005.35 1005.68 1006.49 1007.11 1006.97 1006.88 1007.07 1007.32 1007.33 1007.11 1006.33 1006.12 1006.17 1006.14 1006.65 1007.42 1007.73 1007.91 1007.96 1007.93 1007.87 1007.71 1007.91 1008.54 1009.25 1010.22 1010.90 1011.63 1012.63 1013.29 1013.55 1014.04 1014.38 1014.85 1015.15 1015.68 1015.89 1015.80 1015.77 1015.87 1016.46 1016.27 1015.97 1015.92
1005.57 1005.87 1006.91 1007.35 1007.63 1007.91 1007.90 1009.16 1008.67 1008.49 1007.64 1006.99 1006.60 1006.23 1006.25 1007.44 1007.10 1007.35 1007.45 1007.37 1007.38 1007.47 1008.21 1008.90 1009.70 1010.58 1011.46 1012.06 1012.75 1013.33 1013.36 1013.71 1014.10 1014.63 1015.33 1015.74 1016.09 1016.41 1016.40 1016.39 1016.43 1016.06 1016.27 1016.04
1006.73 1006.71 1006.99 1007.82 1008.17 1008.59 1008.53 1008.79 1008.42 1008.63 1008.17 1008.09 1007.29 1006.75 1008.68 1007.81 1007.98 1008.23 1008.26 1008.00 1007.91 1008.23 1008.48 1008.91 1009.72 1010.44 1011.82 1012.33 1012.65 1013.10 1013.47 1013.50 1013.84 1014.48 1014.84 1015.30 1015.94 1015.83 1016.45 1016.48 1016.24 1016.26 1016.15 1016.33
1007.77 1007.99 1008.81 1008.13 1007.91 1008.71 1008.84 1009.86 1009.22 1009.33 1009.46 1009.14 1008.05 1007.47 1007.92 1008.46 1008.59 1008.81 1009.09 1008.90 1008.74 1008.54 1008.90 1009.47 1010.25 1011.01 1012.01 1012.39 1012.40 1012.85 1013.19 1013.51 1013.65 1014.13 1015.13 1016.36 1016.23 1016.29 1016.57 1016.40 1016.28 1016.17 1016.35 1016.30
1008.59 1008.61 1008.34 1010.40 1008.69 1008.75 1008.75 1008.89 1009.57 1010.00 1010.10 1009.93 1009.37 1008.71 1008.97 1009.21 1009.31 1009.53 1009.87 1009.44 1009.92 1010.27 1010.26 1010.31 1010.66 1011.29 1011.86 1012.21 1012.51 1012.93 1013.63 1013.79 1013.99 1015.05 1015.86 1016.40 1016.54 1016.28 1016.48 1016.47 1016.39 1016.63 1016.70 1016.53
1009.57 1009.27 1008.75 1008.21 1009.10 1011.26 1010.85 1009.19 1010.11 1010.58 1011.02 1010.31 1009.53 1008.79 1008.48 1009.07 1009.67 1009.97 1010.15 1010.37 1010.27 1010.55 1010.58 1011.04 1011.25 1011.62 1012.13 1012.70 1013.10 1013.58 1013.85 1014.00 1015.13 1015.59 1016.01 1016.29 1016.22 1016.69 1016.59 1016.49 1016.94 1017.08 1016.95 1016.71
1011.01 1009.89 1009.33 1008.60 1009.49 1009.77 1010.02 1009.25 1009.71 1010.59 1010.67 1010.20 1009.92 1009.71 1009.43 1009.51 1010.15 1010.53 1011.00 1011.08 1010.82 1010.83 1011.35 1011.80 1012.36 1012.48 1012.78 1013.07 1013.53 1013.91 1014.02 1014.84 1015.24 1015.51 1015.69 1015.96 1016.47 1016.73 1016.57 1017.14 1017.35 1017.32 1017.15 1016.99
1010.85 1010.07 1009.39 1009.03 1009.43 1009.55 1009.34 1009.35 1009.37 1009.89 1010.29 1010.63 1010.57 1010.29 1010.01 1010.26 1010.72 1010.84 1011.35 1011.58 1011.46 1011.75 1012.37 1012.87 1013.18 1013.56 1013.77 1014.06 1014.40 1014.58 1014.81 1015.27 1015.73 1015.78 1015.96 1016.34 1016.71 1016.74 1017.37 1017.57 1017.61 1017.59 1017.35 1016.99
1010.84 1010.17 1010.05 1009.43 1009.53 1009.90 1009.66 1009.57 1009.57 1009.87 1010.30 1010.63 1010.67 1010.65 1012.03 1011.24 1010.80 1011.45 1012.03 1012.28 1012.60 1013.12 1013.43 1013.82 1014.08 1014.33 1014.51 1014.85 1014.98 1015.11 1015.45 1016.10 1016.41 1016.34 1016.42 1016.71 1016.87 1017.51 1017.85 1017.77 1017.44 1017.18 1017.12 1016.79
1010.55 1010.06 1010.33 1009.72 1009.69 1010.07 1009.77 1009.44 1009.77 1010.32 1010.71 1011.06 1010.95 1010.95 1011.21 1011.39 1011.95 1012.59 1012.87 1013.20 1013.86 1014.35 1014.67 1014.74 1014.78 1014.95 1015.04 1015.50 1015.51 1015.78 1016.23 1016.56 1016.79 1016.85 1016.88 1016.95 1017.71 1017.93 1017.79 1017.64 1017.55 1017.72 1017.26 1016.93
1010.61 1010.68 1010.42 1010.17 1010.08 1009.87 1009.59 1010.12 1010.46 1010.93 1011.50 1011.38 1011.29 1011.36 1011.83 1012.16 1012.99 1013.63 1014.57 1015.08 1015.24 1015.50 1015.59 1015.42 1015.50 1015.51 1015.59 1015.88 1016.10 1016.30 1016.59 1016.81 1017.00 1017.33 1017.30 1017.86 1018.23 1017.75 1017.99 1017.95 1017.86 1017.73 1017.72 1017.33
1011.11 1010.91 1010.61 1010.51 1010.20 1009.83 1009.54 1010.84 1011.44 1011.39 1011.76 1011.68 1011.63 1011.95 1012.38 1012.60 1013.23 1015.65 1016.49 1015.90 1016.17 1016.29 1016.13 1016.01 1015.96 1015.88 1016.15 1016.44 1016.69 1016.80 1016.86 1017.08 1017.46 1017.73 1018.03 1018.47 1017.95 1018.31 1018.41 1018.11 1017.91 1017.88 1017.60 1017.25
1011.23 1011.48 1011.44 1010.92 1010.65 1010.21 1011.15 1011.28 1011.86 1012.04 1012.17 1012.71 1012.68 1012.76 1013.21 1013.67 1014.63 1016.27 1016.07 1016.29 1016.55 1016.57 1016.41 1016.47 1016.31 1016.33 1016.70 1017.03 1017.16 1017.13 1017.28 1017.67 1017.99 1018.14 1018.71 1018.32 1018.47 1018.81 1018.51 1018.37 1018.07 1018.03 1017.65 1017.26
1011.07 1011.05 1010.78 1010.54 1010.77 1010.70 1011.66 1011.95 1011.98 1012.43 1013.84 1013.64 1013.65 1013.86 1014.04 1014.40 1015.57 1016.01 1016.23 1016.55 1016.66 1016.60 1016.58 1016.71 1016.57 1016.51 1017.26 1017.50 1017.50 1017.55 1017.95 1018.17 1018.30 1018.96 1018.82 1018.65 1019.10 1019.08 1018.64 1018.54 1018.23 1018.17 1017.81 1017.41
1010.51 1010.79 1010.75 1011.26 1011.02 1011.54 1012.43 1012.35 1013.03 1014.08 1014.14 1014.23 1014.30 1014.67 1014.99 1015.51 1015.93 1016.22 1016.39 1016.56 1016.64 1016.67 1016.78 1016.82 1016.73 1016.70 1017.59 1017.92 1017.75 1018.03 1018.45 1018.58 1018.87 1019.47 1018.95 1018.97 1019.53 1019.26 1018.94 1018.65 1018.51 1018.23 1018.11 1017.70
1011.20 1011.32 1011.78 1012.05 1011.83 1012.66 1012.96 1013.48 1013.81 1014.31 1014.34 1014.35 1014.67 1015.25 1015.48 1015.83 1016.00 1016.29 1016.40 1016.54 1016.89 1016.95 1017.11 1017.16 1017.10 1017.03 1017.90 1018.27 1018.50 1018.52 1018.88 1018.79 1019.52 1019.56 1019.30 1019.29 1019.62 1019.33 1019.24 1018.73 1018.75 1018.57 1018.45 1017.85
1010.69 1011.69 1012.16 1012.49 1012.39 1012.42 1012.91 1013.39 1013.84 1014.24 1014.48 1014.87 1015.22 1015.57 1015.80 1016.06 1016.49 1016.50 1016.58 1016.83 1017.16 1017.29 1017.28 1017.46 1017.36 1017.45 1018.00 1018.46 1018.72 1018.96 1019.09 1019.40 1019.95 1019.89 1019.55 1019.49 1019.58 1019.50 1019.19 1018.56 1018.56 1018.49 1018.87 1018.95
1010.80 1012.01 1012.02 1012.44 1012.43 1012.41 1012.65 1012.97 1013.60 1014.21 1014.75 1015.05 1015.51 1015.83 1016.19 1016.48 1016.60 1016.76 1016.94 1017.24 1017.47 1017.59 1017.48 1017.79 1017.75 1018.03 1018.32 1018.61 1018.94 1019.15 1019.27 1019.89 1020.12 1020.02 1019.45 1019.53 1019.65 1019.53 1019.45 1019.47 1019.59 1019.19 1019.88 1019.91
1010.93 1011.23 1011.89 1011.82 1012.26 1012.83 1012.83 1013.18 1013.93 1014.35 1014.77 1015.12 1015.76 1016.22 1016.68 1016.87 1017.02 1017.27 1017.49 1017.75 1017.84 1017.88 1017.72 1017.98 1018.00 1018.28 1018.59 1018.76 1019.09 1019.42 1019.59 1020.23 1020.28 1019.96 1019.42 1019.59 1019.72 1019.68 1019.36 1019.64 1019.79 1020.21 1020.29 1020.27
Thickness
5829 5821 5822 5824 5833 5830 5826 5822 5819 5825 5824 5809 5816 5811 5822 5822 5815 5815 5807 5803 5797 5795 5791 5781 5773 5770 5761 5753 5744 5736 5727 5720 5711 5707 5702 5699 5696 5693 5683 5679 5672 5660 5653 5645
5824 5811 5838 5836 5832 5824 5823 5818 5800 5822 5820 5806 5812 5810 5821 5810 5805 5803 5802 5799 5794 5789 5784 5774 5770 5765 5757 5749 5740 5731 5723 5716 5708 5705 5701 5693 5683 5679 5675 5669 5660 5652 5644 5639
5818 5824 5834 5825 5819 5814 5814 5803 5797 5794 5810 5819 5805 5802 5803 5805 5806 5800 5800 5800 5795 5789 5784 5776 5769 5762 5755 5745 5735 5726 5719 5712 5704 5697 5694 5686 5680 5677 5671 5665 5656 5650 5637 5631
5826 5831 5819 5817 5817 5812 5802 5807 5803 5798 5792 5789 5808 5777 5795 5798 5792 5793 5788 5789 5789 5784 5780 5773 5765 5759 5753 5744 5739 5726 5717 5707 5700 5692 5686 5677 5668 5664 5663 5657 5652 5639 5630 5624
5817 5813 5809 5811 5806 5810 5797 5807 5798 5797 5793 5793 5789 5790 5774 5796 5790 5786 5791 5789 5788 5788 5785 5773 5761 5752 5750 5742 5734 5723 5711 5701 5693 5685 5676 5670 5667 5664 5657 5649 5639 5629 5625 5615
5821 5832 5825 5816 5813 5809 5810 5805 5809 5802 5807 5773 5779 5778 5772 5773 5783 5790 5792 5789 5790 5789 5783 5774 5764 5752 5745 5742 5731 5719 5706 5697 5689 5681 5674 5665 5658 5650 5643 5635 5625 5622 5611 5602
5803 5806 5814 5815 5805 5809 5806 5790 5777 5761 5769 5770 5789 5776 5767 5783 5787 5784 5782 5787 5793 5794 5783 5774 5767 5750 5742 5733 5724 5716 5704 5692 5686 5678 5670 5662 5650 5639 5632 5625 5618 5603 5597 5586
5789 5773 5798 5806 5800 5791 5791 5785 5758 5729 5749 5767 5790 5760 5766 5788 5788 5785 5783 5782 5781 5783 5783 5774 5762 5749 5741 5730 5719 5709 5701 5690 5684 5674 5664 5653 5642 5633 5624 5614 5599 5589 5581 5572
5792 5787 5808 5806 5804 5797 5779 5744 5783 5757 5770 5763 5774 5787 5799 5785 5788 5785 5784 5784 5782 5781 5770 5761 5752 5743 5731 5720 5711 5702 5696 5687 5678 5667 5654 5642 5630 5618 5608 5597 5586 5579 5567 5559
5799 5774 5801 5794 5800 5793 5784 5790 5762 5765 5733 5722 5757 5769 5726 5762 5762 5767 5766 5768 5770 5767 5765 5759 5748 5736 5723 5714 5707 5698 5691 5683 5673 5660 5649 5636 5621 5613 5596 5585 5575 5565 5556 5545
5797 5781 5759 5789 5782 5761 5772 5747 5767 5766 5754 5730 5733 5755 5775 5761 5761 5754 5754 5757 5758 5759 5756 5750 5739 5728 5715 5709 5705 5694 5686 5675 5665 5653 5637 5617 5608 5597 5583 5572 5562 5553 5541 5533
5793 5778 5763 5732 5787 5795 5786 5774 5765 5735 5730 5745 5742 5741 5771 5759 5756 5750 5745 5749 5744 5742 5739 5738 5730 5720 5710 5702 5697 5688 5675 5665 5655 5638 5620 5606 5594 5586 5571 5559 5549 5536 5525 5518
5785 5767 5751 5766 5767 5748 5739 5768 5761 5751 5740 5731 5727 5741 5776 5764 5749 5746 5738 5737 5739 5733 5731 5725 5720 5711 5701 5692 5685 5675 5667 5657 5638 5624 5610 5597 5587 5570 5559 5549 5532 5519 5508 5501
5771 5769 5760 5752 5741 5759 5747 5764 5763 5745 5724 5732 5736 5734 5749 5748 5735 5734 5729 5729 5731 5728 5718 5712 5703 5699 5693 5686 5676 5666 5658 5642 5630 5617 5605 5592 5576 5561 5551 5533 5517 5502 5491 5483
5772 5753 5769 5775 5770 5766 5765 5762 5763 5748 5745 5720 5727 5728 5739 5734 5729 5728 5724 5721 5720 5713 5705 5697 5690 5684 5679 5671 5663 5655 5645 5632 5619 5608 5596 5580 5566 5555 5537 5521 5506 5488 5476 5470
5769 5752 5758 5757 5763 5755 5748 5757 5756 5750 5743 5734 5730 5725 5720 5734 5735 5722 5714 5710 5703 5697 5692 5686 5680 5674 5668 5659 5652 5644 5633 5619 5606 5596 5584 5571 5559 5543 5528 5516 5503 5487 5471 5465
5756 5757 5742 5736 5754 5744 5729 5746 5745 5740 5739 5728 5711 5723 5728 5720 5712 5706 5702 5698 5690 5684 5677 5674 5671 5665 5660 5650 5644 5633 5621 5609 5596 5585 5574 5563 5548 5535 5526 5516 5503 5484 5474 5468
5748 5744 5748 5731 5742 5706 5744 5755 5745 5729 5724 5729 5727 5723 5719 5712 5706 5701 5689 5672 5675 5671 5667 5668 5663 5658 5653 5644 5635 5625 5613 5600 5589 5574 5566 5552 5540 5535 5523 5513 5504 5492 5479 5475
5751 5741 5731 5718 5724 5741 5750 5730 5721 5716 5711 5724 5718 5715 5712 5712 5705 5672 5661 5670 5670 5664 5665 5662 5659 5653 5645 5635 5625 5615 5604 5592 5578 5566 5556 5544 5540 5528 5519 5513 5506 5497 5490 5485
5740 5738 5724 5722 5706 5704 5720 5728 5735 5726 5692 5711 5710 5705 5699 5697 5655 5656 5675 5672 5666 5664 5663 5656 5653 5647 5636 5626 5617 5607 5595 5581 5568 5561 5548 5544 5534 5523 5518 5511 5507 5500 5496 5492
5717 5719 5717 5722 5712 5727 5725 5727 5731 5684 5675 5702 5701 5695 5691 5682 5675 5674 5674 5668 5666 5663 5658 5652 5647 5640 5627 5618 5610 5598 5585 5573 5564 5552 5546 5540 5528 5521 5517 5511 5508 5502 5499 5496
5719 5711 5713 5710 5702 5688 5720 5717 5691 5691 5698 5696 5693 5688 5681 5678 5675 5672 5670 5665 5662 5658 5652 5648 5641 5635 5621 5611 5603 5590 5577 5569 5558 5546 5544 5536 5524 5520 5516 5512 5508 5505 5499 5499
5700 5713 5704 5700 5703 5709 5712 5701 5703 5699 5693 5692 5688 5683 5680 5674 5672 5670 5666 5663 5657 5652 5645 5641 5634 5629 5615 5604 5593 5583 5572 5566 5552 5544 5540 5533 5524 5520 5515 5513 5508 5504 5501 5503
5721 5716 5700 5695 5705 5706 5705 5705 5702 5699 5692 5689 5686 5681 5678 5671 5668 5666 5663 5658 5651 5646 5640 5634 5629 5622 5610 5600 5589 5578 5570 5560 5547 5541 5537 5532 5525 5520 5517 5518 5513 5510 5502 5498
5716 5702 5695 5690 5700 5704 5703 5704 5700 5695 5691 5687 5684 5679 5673 5669 5665 5662 5657 5651 5646 5639 5635 5628 5622 5614 5605 5596 5585 5576 5568 5555 5545 5540 5539 5533 5526 5522 5517 5512 5508 5508 5499 5495
5713 5699 5687 5687 5699 5693 5694 5700 5696 5689 5685 5684 5677 5672 5669 5665 5660 5657 5650 5645 5639 5633 5631 5623 5618 5610 5600 5593 5582 5573 5565 5552 5545 5542 5540 5534 5526 5522 5521 5514 5510 5500 5497 5495